Regional Weather Roundup
Issued by NWS

Home | Current Version | Previous Version | Text Only | Print | Product List | Glossary Off
Versions: 1 2 3 4 5 6 7 8 9 10 11 12 13 14 15 16 17 18 19 20 21 22 23 24 25 26 27 28 29 30 31 32 33 34 35 36 37 38 39 40 41 42 43 44 45 46 47 48 49 50

451
ASUS44 KMEG 251800
RWRTN
TENNESSEE HOURLY STATE WEATHER ROUNDUP
NATIONAL WEATHER SERVICE MEMPHIS TN
100 PM CDT SUN SEP 25 2016

TNZ002-004-019-021-049-052-054-088>092-251900-
WEST TENNESSEE

CITY           SKY/WX    TMP DP  RH WIND       PRES   REMARKS
MEMPHIS INTL   MOSUNNY   94  63  35 CALM      30.04F HX  95
NWS MEMPHIS      N/A     94 N/A N/A MISG        N/A
JACKSON        SUNNY    N/A N/A N/A E5        30.06F
DYERSBURG      SUNNY    N/A N/A N/A MISG      30.04F
UNION CITY     SUNNY     91  66  43 W3        30.04F HX  94
PARIS          SUNNY     90  64  43 CALM      30.07F HX  91
$$

TNZ008-025-027-028-033-062-065-066-251900-
NORTH MIDDLE TENNESSEE

CITY           SKY/WX    TMP DP  RH WIND       PRES   REMARKS
NASHVILLE      MOSUNNY   89  63  41 NE3       30.07F HX  90
CLARKSVILLE    SUNNY     90  62  39 VRB3      30.06F HX  90
SMYRNA         MOSUNNY   90  66  45 N9        30.07F HX  92
COOKEVILLE     SUNNY     93  68  43 VRB5      30.08F HX  97
CROSSVILLE     MOSUNNY   86  58  38 NW5       30.13F
$$

TNZ061-075-076-078-094-096-097-251900-
SOUTH MIDDLE TENNESSEE

CITY           SKY/WX    TMP DP  RH WIND       PRES   REMARKS
SHELBYVILLE    SUNNY     93  66  40 CALM      30.08F HX  96
$$

TNZ017-018-042-046-047-251900-
NORTHEAST TENNESSEE

CITY           SKY/WX    TMP DP  RH WIND       PRES   REMARKS
TRI CITIES     MOSUNNY   87  62  43 E5        30.11F
$$

TNZ012-013-036-069-073-074-251900-
CENTRAL EAST TENNESSEE

CITY           SKY/WX    TMP DP  RH WIND       PRES   REMARKS
KNOXVILLE      MOSUNNY   91  60  35 MISG      30.08F HX  90
OAK RIDGE      SUNNY     90  63  40 MISG      30.10F HX  91
GATLINBURG     MOSUNNY   91  59  33 NW12      30.08F HX  90
$$

TNZ083-085-099-251900-
SOUTHEAST TENNESSEE

CITY           SKY/WX    TMP DP  RH WIND       PRES   REMARKS
CHATTANOOGA    MOSUNNY   92  60  34 SE7       30.06F HX  91
$$

SKY/WX REPORTED AS FAIR MEANS FEW OR NO CLOUDS BELOW
12 THOUSAND FEET.





USA.gov is the U.S. government's official web portal to all federal, state and local government web resources and services.